Vertical_Velocity
-1 -1 -1 -1 -1 -1 -0 1 -0 -1 0 -0 -2 0 -0 -1 -1 -0 1 0 -0 -1 -0 0 -0 -0 1 0 0 0 4 0 4 0 -1 -2 2 -1 -1 0 0 -0 1 0 -1
-0 0 0 -0 -1 -1 -0 -0 1 0 -1 -1 -1 -1 -0 -0 -1 -1 -1 0 1 -0 -0 0 -0 -0 1 3 2 -1 2 1 2 -2 4 -1 -0 -3 -0 6 4 -1 -1 -1 -1
5 2 1 1 1 -0 -1 1 2 1 1 -1 -1 -0 -0 0 -1 2 -1 -1 -1 -0 2 -0 0 -0 -1 0 1 4 -0 1 -1 0 0 -0 -6 -3 2 4 6 1 0 -2 1
0 1 3 3 2 0 2 0 0 1 2 1 -0 -1 -1 -1 -3 -2 -1 -1 -1 -1 0 1 -0 1 1 -0 2 2 4 1 -1 -0 -0 -0 -0 0 2 -2 -0 2 2 -3 1
0 -3 -2 -0 3 3 1 -0 -1 1 1 1 2 -0 -1 -2 1 0 -0 -1 -0 -1 -1 0 -0 -0 1 1 1 -0 2 -0 1 -0 -1 1 -1 7 3 4 -8 -0 1 1 -1
-0 -1 -1 -3 -2 -1 -0 1 2 -0 1 1 0 2 -1 -5 -2 1 -0 1 -1 -1 1 0 1 -1 -3 1 -0 2 1 -0 1 1 -1 -2 -1 5 4 0 2 1 -0 0 -1
0 0 -0 -0 -0 -1 -3 -3 -2 0 1 1 1 0 -0 8 -0 1 1 -1 0 -0 0 1 -3 0 0 -0 -1 3 2 1 -2 -0 1 0 4 -2 0 -1 1 0 -0 0 -1
-3 -3 -1 -0 2 0 0 -1 -0 -2 -1 1 0 0 -7 1 2 -0 2 1 -1 1 -0 0 2 -2 1 -3 3 1 1 -1 -4 -0 -0 0 6 0 -2 -2 4 2 -2 -0 0
2 1 -1 -1 -0 -1 -1 1 -0 1 -1 -1 0 2 -9 1 1 2 1 1 1 -1 -1 0 1 3 -1 2 0 -1 2 1 -7 0 -5 -4 10 -2 -1 -2 -5 5 0 -1 1
-2 -2 0 -1 -1 1 -1 1 3 3 3 2 -1 1 9 -2 0 1 2 3 1 0 0 -2 -0 0 2 -2 -2 2 -1 -5 -1 -1 -3 -2 39 7 -0 -2 -1 -1 3 -0 2
-2 -0 -1 -1 0 -2 0 0 0 1 3 1 7 -6 16 -1 2 0 3 1 2 -0 1 1 -2 2 4 4 3 5 1 18 10 -8 -3 -9 36 1 -3 -2 -1 -2 2 0 2
-1 -2 -2 -1 1 -1 -1 -1 2 -0 -1 1 2 -1 10 2 -2 2 2 3 3 3 -1 -2 3 3 1 1 0 -5 2 -1 -2 -6 -10 6 -5 -0 -4 -4 -0 -1 2 -1 -1
-4 -5 -2 1 0 2 1 2 2 -1 1 2 3 1 2 4 3 3 2 -2 3 0 1 1 9 0 -2 0 1 1 1 16 -8 4 1 -5 1 -5 -3 -4 -2 -0 0 14 -2
-2 -2 -2 -2 3 2 4 4 2 -1 3 -1 2 -2 4 2 1 5 0 -0 0 3 3 2 -2 -2 0 -1 6 3 2 11 -5 -2 -3 -0 30 -8 -3 -0 1 -3 -3 -1 0
-1 -1 -2 -1 -0 1 3 2 2 0 9 -1 2 6 -1 10 -6 7 2 2 -1 2 -0 12 1 -0 -0 6 5 3 -1 -0 4 3 10 -8 -4 -6 9 -9 -4 -1 2 -0 2
-3 -3 -2 1 0 2 2 3 3 1 2 -5 -1 0 3 1 0 -1 3 5 1 1 -1 4 1 -1 5 2 3 -4 -5 0 5 1 -3 0 -5 -8 24 -10 -2 -5 1 3 -1
-5 -3 -1 -2 -4 -1 2 4 -2 20 5 -6 -1 1 2 5 3 2 2 0 6 5 1 -1 -1 2 1 2 1 -1 -1 2 -2 -4 -2 -7 -0 -4 -4 -4 -4 -1 4 1 6
-5 -2 -2 -3 -3 -0 1 2 6 8 -7 5 5 -0 -2 -0 4 -2 2 5 8 1 14 6 -8 -2 2 3 2 2 2 4 -6 -3 -3 18 10 -3 -3 -4 0 0 0 -2 -2
-6 -4 -3 -1 -2 0 2 6 23 -1 1 1 1 2 11 7 2 10 3 14 0 10 -20 17 4 -0 -4 8 -0 0 -16 -5 35 16 14 9 -9 1 -6 -8 1 -0 1 1 -3
-4 -5 -3 1 0 -3 -14 -1 -2 -3 -1 2 3 6 5 -6 -4 -3 6 -6 -5 11 9 -5 27 -8 4 1 -10 -12 10 -10 -6 12 3 17 -11 -3 -11 2 1 -2 -2 -3 -6
-3 -7 -4 1 -1 -7 23 -5 -3 -5 -4 -3 9 0 -4 3 10 36 23 -9 2 5 7 -9 7 -6 -13 -2 12 10 9 -9 19 -15 3 36 13 -8 5 0 2 -2 -2 -4 -1
-4 -8 -2 -3 -10 2 -1 -1 -1 -4 -4 -3 -2 -1 0 -6 4 1 13 -18 2 5 7 -6 -0 -2 2 -17 -11 -12 8 2 -1 -19 -7 82 -3 -4 -5 3 2 -2 -0 -4 1
-1 -3 -2 -3 13 -1 -2 -4 -1 -0 -1 2 1 -0 2 -0 6 3 0 -1 0 -3 -12 -6 6 9 -10 11 -0 1 7 -3 4 8 -2 3 -21 -5 -1 1 2 0 -1 -2 2
-1 -7 -3 -4 -2 -1 -2 -2 -4 -2 -1 -2 -1 -3 -0 0 1 -2 1 -3 3 1 1 2 -11 -5 19 15 5 -5 -12 0 -0 -1 -1 39 -14 2 -4 -2 1 -0 -0 -1 1
-3 -6 -2 -2 -2 0 -1 0 -1 -2 -3 -1 -2 -1 -2 5 -9 -2 -1 -1 3 -1 -1 -2 -1 -0 -5 2 1 3 10 -2 -1 10 18 10 -8 -6 -6 -1 2 3 -0 -2 -1
1 -4 -3 0 -1 -3 1 -1 -1 -1 -0 -1 -1 0 -0 -3 -9 1 -2 -2 -4 -3 0 -3 20 2 1 2 -3 6 2 9 -1 -12 9 14 -26 -14 4 -3 -1 2 -1 -1 -2
2 -3 -5 -1 -2 -0 0 -0 -1 -2 -1 -0 -1 -2 -0 -1 -3 2 -3 0 -3 -0 -1 -0 -1 -3 2 5 1 -1 1 5 6 10 4 4 -17 11 -3 -1 4 1 2 1 -0
Height
5854 5853 5852 5851 5851 5852 5852 5853 5854 5855 5856 5858 5859 5860 5863 5865 5867 5869 5872 5875 5877 5880 5883 5887 5889 5891 5893 5896 5899 5901 5901 5902 5902 5901 5901 5900 5901 5901 5903 5905 5907 5908 5909 5911 5910
5847 5847 5846 5846 5846 5846 5847 5848 5849 5851 5852 5854 5856 5857 5859 5861 5864 5867 5870 5872 5875 5877 5880 5884 5887 5890 5893 5895 5898 5900 5901 5901 5903 5902 5902 5902 5902 5904 5905 5906 5908 5909 5911 5912 5912
5839 5839 5839 5840 5839 5840 5841 5842 5843 5845 5847 5849 5851 5853 5855 5857 5861 5864 5866 5869 5873 5875 5878 5882 5886 5889 5892 5894 5897 5899 5900 5901 5903 5903 5904 5905 5904 5905 5906 5907 5909 5911 5912 5913 5913
5834 5833 5832 5833 5833 5834 5835 5836 5838 5840 5841 5844 5846 5849 5851 5853 5858 5860 5863 5866 5869 5873 5876 5879 5883 5887 5890 5893 5896 5898 5899 5901 5903 5903 5904 5905 5905 5906 5906 5907 5910 5911 5913 5913 5914
5827 5827 5827 5827 5827 5827 5828 5830 5831 5833 5836 5838 5840 5843 5846 5849 5853 5855 5859 5862 5865 5869 5873 5876 5880 5883 5887 5890 5893 5896 5899 5900 5902 5903 5904 5905 5905 5906 5906 5909 5911 5912 5913 5914 5915
5820 5820 5819 5820 5821 5821 5822 5822 5824 5827 5829 5832 5834 5837 5840 5844 5847 5850 5854 5858 5861 5865 5869 5873 5877 5880 5883 5887 5891 5894 5897 5900 5901 5903 5903 5905 5906 5906 5907 5908 5911 5912 5913 5914 5915
5814 5813 5811 5811 5812 5813 5815 5816 5817 5819 5821 5825 5828 5831 5833 5840 5842 5845 5849 5853 5856 5860 5864 5869 5873 5878 5882 5885 5889 5894 5896 5897 5900 5901 5903 5904 5907 5906 5908 5909 5911 5912 5913 5913 5915
5807 5806 5804 5803 5803 5804 5806 5808 5810 5812 5814 5817 5820 5824 5826 5832 5836 5840 5844 5847 5852 5856 5860 5865 5870 5874 5878 5882 5887 5892 5894 5897 5897 5899 5901 5904 5906 5906 5908 5908 5909 5910 5912 5913 5914
5799 5798 5797 5796 5795 5795 5796 5798 5801 5803 5806 5809 5813 5816 5819 5825 5829 5834 5838 5842 5846 5851 5855 5861 5866 5872 5875 5880 5883 5888 5893 5898 5896 5898 5899 5903 5901 5903 5906 5907 5907 5908 5909 5912 5914
5793 5791 5790 5788 5787 5787 5788 5789 5791 5794 5796 5800 5804 5809 5813 5818 5822 5827 5832 5837 5841 5845 5851 5856 5861 5866 5870 5874 5880 5887 5890 5897 5896 5894 5897 5900 5892 5895 5903 5905 5907 5908 5908 5911 5913
5788 5785 5784 5782 5780 5780 5781 5781 5784 5786 5788 5790 5795 5797 5806 5809 5815 5820 5826 5830 5835 5840 5845 5850 5856 5861 5867 5872 5878 5885 5888 5895 5895 5891 5896 5900 5899 5894 5900 5902 5904 5906 5906 5906 5911
5783 5780 5777 5775 5774 5772 5772 5773 5775 5777 5779 5782 5785 5788 5795 5801 5805 5811 5818 5825 5830 5835 5840 5845 5851 5858 5862 5866 5868 5876 5885 5893 5888 5889 5896 5895 5896 5896 5897 5900 5902 5903 5905 5907 5908
5776 5773 5769 5765 5764 5763 5762 5764 5764 5766 5770 5773 5776 5781 5787 5792 5797 5804 5812 5818 5824 5829 5834 5840 5849 5851 5856 5860 5864 5872 5881 5890 5886 5888 5892 5894 5897 5894 5895 5899 5900 5902 5903 5904 5906
5766 5761 5759 5757 5756 5752 5752 5753 5755 5756 5761 5763 5768 5772 5778 5783 5789 5795 5801 5810 5817 5822 5828 5834 5838 5842 5849 5855 5862 5868 5874 5884 5883 5883 5889 5894 5901 5894 5895 5896 5898 5900 5901 5903 5906
5758 5753 5749 5746 5746 5745 5746 5747 5750 5752 5762 5756 5759 5764 5770 5778 5781 5789 5794 5802 5809 5815 5821 5828 5830 5837 5843 5850 5857 5865 5868 5872 5879 5881 5892 5890 5897 5892 5886 5891 5894 5897 5900 5902 5906
5753 5748 5744 5743 5742 5742 5741 5743 5747 5753 5754 5751 5755 5759 5764 5769 5771 5779 5788 5794 5801 5809 5815 5821 5826 5831 5839 5845 5852 5856 5859 5865 5870 5877 5882 5889 5893 5890 5883 5888 5889 5895 5898 5901 5904
5751 5747 5744 5742 5741 5739 5740 5742 5748 5752 5749 5750 5752 5756 5761 5765 5768 5773 5781 5787 5796 5803 5809 5814 5816 5824 5831 5838 5844 5847 5855 5863 5868 5871 5880 5883 5890 5879 5880 5886 5887 5891 5895 5898 5901
5752 5748 5745 5743 5740 5738 5740 5743 5746 5742 5744 5746 5751 5755 5761 5765 5767 5768 5776 5783 5790 5797 5810 5811 5815 5820 5826 5832 5839 5842 5853 5863 5867 5872 5878 5883 5885 5872 5876 5880 5885 5888 5891 5895 5897
5752 5749 5747 5744 5741 5740 5741 5742 5737 5740 5742 5745 5749 5758 5761 5762 5767 5770 5776 5783 5783 5790 5796 5809 5812 5812 5818 5827 5837 5839 5842 5858 5868 5873 5877 5876 5871 5863 5868 5876 5882 5886 5889 5892 5896
5753 5749 5747 5745 5743 5741 5742 5740 5738 5737 5739 5743 5750 5755 5757 5760 5765 5768 5770 5769 5770 5782 5790 5795 5801 5805 5813 5818 5821 5827 5840 5848 5856 5864 5870 5869 5866 5864 5863 5870 5877 5881 5885 5886 5889
5753 5749 5747 5745 5743 5742 5742 5740 5737 5735 5737 5740 5744 5747 5749 5754 5761 5765 5764 5764 5771 5779 5785 5787 5796 5801 5803 5810 5819 5826 5831 5839 5853 5858 5865 5867 5856 5852 5861 5866 5871 5875 5881 5884 5886
5753 5750 5747 5746 5745 5743 5741 5739 5737 5735 5735 5737 5739 5741 5746 5747 5753 5756 5757 5758 5766 5773 5779 5784 5792 5797 5801 5804 5809 5813 5825 5833 5840 5848 5852 5861 5843 5845 5856 5861 5864 5869 5875 5879 5881
5754 5751 5748 5746 5747 5744 5741 5739 5738 5737 5737 5737 5738 5738 5741 5742 5748 5749 5750 5754 5760 5764 5770 5777 5788 5795 5795 5799 5804 5810 5816 5821 5832 5842 5848 5850 5837 5841 5848 5853 5858 5863 5868 5872 5875
5755 5753 5750 5747 5746 5744 5742 5740 5738 5737 5737 5737 5737 5737 5739 5740 5743 5747 5749 5752 5755 5760 5765 5771 5776 5783 5788 5796 5800 5805 5809 5815 5820 5830 5839 5842 5833 5837 5842 5846 5851 5856 5861 5866 5869
5756 5754 5751 5748 5746 5744 5742 5740 5738 5737 5736 5736 5736 5737 5740 5744 5742 5744 5747 5749 5753 5756 5760 5766 5772 5776 5778 5784 5790 5795 5801 5807 5814 5823 5833 5823 5823 5828 5834 5839 5844 5849 5854 5858 5862
5758 5755 5751 5749 5746 5744 5742 5740 5737 5736 5736 5736 5736 5736 5736 5738 5741 5744 5745 5748 5751 5753 5758 5761 5767 5768 5772 5777 5779 5785 5790 5798 5803 5808 5815 5811 5810 5818 5827 5832 5837 5841 5845 5850 5854
5758 5756 5753 5750 5748 5746 5744 5741 5738 5736 5736 5735 5735 5735 5736 5736 5738 5740 5742 5745 5748 5752 5754 5758 5763 5765 5769 5771 5773 5776 5781 5788 5793 5798 5804 5805 5803 5815 5820 5824 5828 5832 5837 5841 5844